Wind_Speed
7 6 5 4 3 2 2 2 1 1 1 1 1 1 1 1 2 2 2 2 2 1 0 0 1 1 2 2 3 3 4 4 3 3 3 3 3 2 2 1 1 1 1
8 6 5 5 4 3 3 2 2 1 1 1 1 1 1 2 2 2 2 2 2 2 1 0 1 1 1 2 3 3 4 4 4 4 4 4 3 3 3 3 2 2 2
9 8 7 6 5 4 4 3 3 2 2 2 1 1 1 1 1 2 2 2 2 2 1 1 1 1 1 1 2 3 4 4 4 5 5 5 4 4 4 4 4 4 3
10 9 8 7 6 5 5 4 3 3 3 2 2 2 2 1 1 1 2 3 3 3 2 2 2 1 1 0 1 3 3 4 4 4 5 6 6 5 5 4 4 4 4
10 9 10 9 7 7 6 6 5 4 3 3 2 2 2 1 1 1 2 2 3 3 3 3 3 2 2 1 0 1 2 3 3 4 5 5 6 6 6 5 5 5 5
10 10 10 10 9 8 8 7 6 5 5 4 3 3 3 2 1 0 1 1 2 2 2 2 2 2 2 1 1 1 1 1 3 3 4 4 5 6 7 7 7 6 6
11 11 11 11 10 10 9 8 8 7 6 5 4 4 4 3 3 2 1 0 1 2 2 2 2 2 2 1 1 2 2 2 2 3 3 3 4 4 6 8 8 8 8
12 12 11 12 11 10 10 10 9 8 8 7 6 5 5 4 4 3 2 1 1 1 1 1 2 2 1 1 1 2 2 2 2 3 3 4 4 4 5 6 7 8 8
12 12 12 12 12 11 11 11 10 10 10 9 8 7 6 5 5 5 4 3 2 2 2 2 2 2 2 2 3 3 3 3 3 4 4 5 5 5 6 6 7 8 9
13 13 13 12 13 12 12 12 12 12 11 11 10 9 8 8 7 6 5 5 4 4 4 4 4 4 3 3 4 4 5 5 5 5 5 6 6 6 7 7 8 8 9
14 14 14 14 13 13 13 13 13 13 12 12 12 11 10 9 8 8 7 7 7 7 7 7 6 6 6 6 6 6 7 7 7 7 7 7 8 8 9 9 9 10 10
15 15 15 15 14 14 15 14 14 14 14 13 13 12 12 11 10 9 9 8 8 9 9 9 9 8 8 8 8 9 9 9 9 9 10 10 10 10 10 11 11 12 12
15 16 16 16 16 16 16 15 15 15 14 14 14 14 14 14 13 12 12 11 11 12 12 11 11 11 10 10 11 11 11 11 11 11 11 12 12 12 13 13 14 14 14
16 17 17 17 17 17 17 17 17 17 16 16 16 16 15 15 16 15 15 14 14 14 14 14 15 15 14 13 13 13 13 13 14 14 14 14 15 15 16 16 17 17 17
16 17 17 18 18 19 19 19 18 18 18 18 18 18 17 17 18 18 18 18 17 17 17 17 17 17 17 16 16 16 15 16 16 17 17 17 18 18 18 19 19 20 20
17 18 18 19 19 19 19 19 19 19 20 20 20 20 19 18 19 19 20 20 20 20 20 20 20 20 20 19 19 19 18 19 19 19 19 20 20 21 21 22 23 23 24
18 19 20 20 20 19 21 21 21 21 21 21 21 21 21 21 21 21 22 21 22 22 22 22 21 22 22 22 22 22 22 22 22 22 22 23 23 24 25 25 26 26 27
18 19 20 20 19 19 21 21 22 22 22 23 23 23 23 23 23 23 23 24 24 24 24 23 23 23 23 24 25 25 25 25 25 25 26 26 26 27 27 28 28 29 29
17 18 20 20 19 19 20 21 21 22 23 24 25 25 24 24 25 25 25 25 26 26 26 26 26 26 26 26 27 27 28 28 28 27 29 30 30 30 31 31 32 32 33
16 17 19 18 19 19 20 20 21 22 23 24 24 24 24 25 26 27 27 27 27 27 28 28 28 28 29 29 29 29 30 31 31 31 31 32 33 34 35 35 36 36 37
16 16 17 18 19 19 19 20 22 22 23 23 24 24 25 25 27 28 29 29 29 29 29 29 30 30 30 31 31 32 32 33 33 34 34 35 35 36 36 37 37 38 40
15 15 17 18 19 19 19 20 21 22 23 24 24 25 25 26 28 29 29 30 31 31 31 31 31 32 33 33 33 33 33 34 35 36 36 37 38 38 38 38 38 39 41
15 15 16 17 18 18 19 20 21 23 24 24 25 26 27 28 29 29 30 31 32 32 32 32 32 33 33 33 34 36 37 37 37 38 38 39 40 41 42 42 43 43 43
15 16 16 17 18 18 20 21 23 24 25 25 27 28 28 29 30 30 28 29 30 31 31 32 32 33 33 34 35 37 38 39 40 40 41 42 43 44 45 45 45 45 46
17 16 17 17 18 18 19 21 22 24 24 25 27 27 28 28 28 28 29 29 30 31 33 33 34 34 34 35 36 38 39 40 41 42 42 43 44 44 45 46 48 48 49
18 18 18 19 20 20 21 21 22 23 24 25 26 27 28 29 29 29 29 30 30 31 32 32 34 35 35 36 37 39 40 41 42 42 43 44 45 46 47 48 50 51 52
Wind_Direction
250 244 246 246 233 237 248 245 220 191 169 155 123 105 113 90 77 64 55 36 33 30 359 218 218 220 240 239 228 229 225 218 217 217 216 216 215 217 219 216 222 228 235
248 243 244 251 248 247 250 245 239 210 187 174 141 130 131 105 80 70 58 46 34 29 26 333 233 209 214 225 228 229 228 222 217 221 223 226 232 233 233 239 240 242 251
243 244 246 245 250 254 251 246 238 219 206 191 174 174 159 126 98 75 57 49 40 29 36 64 105 176 223 223 221 226 227 224 225 228 231 233 236 237 238 246 249 247 254
243 244 243 243 246 250 250 246 240 227 219 210 207 198 183 159 117 82 64 53 51 52 61 65 72 91 97 137 212 224 226 222 229 233 233 234 238 242 244 250 251 248 251
242 242 243 244 247 251 249 245 239 234 227 218 214 205 198 186 147 97 70 60 55 58 58 63 62 69 75 81 94 210 219 217 227 235 238 241 244 245 247 251 253 253 255
241 241 246 248 250 250 250 246 241 238 232 229 233 223 219 215 209 176 85 50 45 49 45 46 44 46 54 55 33 262 236 235 238 242 247 247 252 250 248 249 254 256 261
241 244 246 247 247 249 249 247 243 241 237 237 238 237 236 227 223 223 220 312 16 31 37 48 45 34 37 33 358 325 292 279 257 256 261 260 265 258 255 253 257 256 261
242 248 248 244 244 245 247 246 244 243 241 243 242 239 236 233 232 228 229 260 324 351 20 27 17 4 358 352 342 330 308 292 279 269 270 270 269 267 268 263 264 262 265
239 243 247 244 245 245 246 247 248 246 241 241 241 239 239 239 241 244 245 253 270 281 289 306 314 322 324 314 309 310 300 294 290 284 279 280 281 282 278 271 271 270 269
239 243 244 244 246 244 246 247 248 247 246 243 242 243 246 246 246 250 249 251 258 266 272 281 290 297 297 295 292 294 292 288 286 285 283 282 282 283 283 281 278 279 278
240 242 244 244 244 244 245 247 247 248 248 247 246 248 249 249 252 253 251 255 260 262 267 272 278 286 289 288 287 289 288 287 285 282 281 280 280 282 282 282 283 283 283
241 243 242 242 242 244 245 246 246 246 246 248 249 248 249 250 255 255 256 261 264 264 266 269 274 279 282 283 283 283 285 286 285 283 283 281 280 281 282 283 282 282 282
242 242 241 241 242 243 243 244 244 243 245 248 249 250 250 252 255 258 261 264 264 265 268 270 272 276 277 280 280 280 279 281 283 283 283 281 279 279 280 282 283 283 282
245 242 242 242 244 245 245 244 244 245 247 250 251 251 253 256 257 260 262 264 264 266 269 269 270 274 275 277 279 279 277 276 278 279 279 279 279 279 278 279 280 282 282
245 243 241 243 246 248 247 245 247 248 249 251 251 252 255 259 261 261 263 265 267 268 271 270 270 272 272 273 275 277 277 277 277 277 276 276 277 278 278 278 279 279 280
247 244 240 244 247 247 247 248 249 251 252 252 253 254 257 261 264 266 268 268 270 271 273 273 271 271 272 272 275 275 276 278 277 277 278 279 279 278 277 278 279 279 279
254 248 247 246 248 249 248 248 250 253 254 255 255 256 258 261 263 266 268 270 272 273 273 272 273 273 274 274 275 273 275 277 276 277 278 278 278 278 279 278 278 279 280
256 251 249 247 249 250 249 249 250 252 254 256 257 258 260 262 264 267 268 270 272 273 273 273 275 273 273 275 274 274 275 274 276 276 277 278 277 278 279 279 278 279 279
261 254 252 249 249 251 250 250 251 254 256 257 257 259 262 265 266 268 270 271 272 272 274 274 276 275 274 275 275 275 275 276 276 277 277 278 278 278 279 279 279 279 279
267 261 257 254 253 252 252 253 255 257 259 261 260 262 264 266 269 271 272 273 273 274 275 275 276 276 276 275 274 275 276 277 277 278 279 279 280 280 279 279 279 280 280
271 265 261 257 256 255 257 259 259 260 261 264 266 265 267 269 271 271 272 273 274 275 278 277 276 276 275 275 276 276 277 277 278 279 281 281 282 282 281 281 281 280 280
272 268 265 261 260 260 259 262 263 264 264 266 268 269 270 270 273 272 273 274 275 276 277 278 278 277 276 275 277 277 278 278 278 279 280 281 282 282 283 283 283 282 281
277 275 269 265 262 263 264 265 266 267 267 267 269 271 273 273 275 276 275 275 276 277 279 280 280 279 278 278 278 278 278 279 279 280 281 281 282 284 284 284 284 282 281
284 279 271 271 270 268 267 268 268 269 269 271 273 273 274 275 275 277 277 278 279 279 278 279 281 281 281 282 281 281 281 281 281 281 282 282 283 284 284 285 284 283 282
285 281 275 274 272 270 271 271 273 274 274 276 276 277 278 278 279 281 282 282 282 282 281 281 281 282 282 282 283 283 282 282 282 282 282 282 283 284 284 284 284 283 283
285 280 279 278 276 274 275 275 275 276 277 278 278 279 281 280 282 284 283 282 282 283 284 284 283 284 284 284 284 284 283 283 283 284 284 284 284 285 284 283 283 283 283
Height
5894 5895 5895 5896 5896 5897 5897 5898 5898 5898 5899 5899 5899 5899 5899 5899 5899 5899 5899 5899 5899 5899 5899 5900 5900 5901 5901 5902 5902 5903 5904 5904 5905 5906 5906 5907 5908 5908 5909 5909 5910 5910 5911
5893 5894 5895 5895 5896 5897 5897 5898 5898 5898 5899 5899 5899 5899 5899 5899 5899 5899 5899 5899 5899 5899 5899 5899 5900 5900 5900 5901 5901 5902 5903 5904 5904 5905 5906 5907 5907 5908 5908 5909 5909 5910 5910
5892 5893 5894 5895 5896 5896 5897 5898 5898 5898 5899 5899 5899 5899 5899 5899 5900 5900 5899 5899 5899 5899 5899 5899 5899 5900 5900 5900 5901 5901 5902 5903 5904 5904 5905 5906 5906 5907 5907 5908 5908 5909 5909
5890 5892 5893 5894 5895 5896 5897 5897 5898 5898 5899 5899 5899 5899 5900 5900 5900 5900 5900 5900 5900 5900 5900 5899 5899 5900 5900 5900 5900 5901 5901 5902 5903 5903 5904 5905 5905 5906 5906 5907 5907 5908 5908
5889 5890 5892 5893 5894 5895 5896 5897 5898 5898 5899 5899 5899 5899 5900 5900 5900 5900 5900 5900 5900 5900 5900 5900 5900 5900 5900 5900 5900 5900 5901 5901 5902 5902 5903 5903 5904 5904 5905 5905 5906 5906 5907
5887 5889 5890 5892 5893 5894 5895 5896 5897 5897 5898 5899 5899 5899 5900 5900 5900 5900 5900 5900 5900 5900 5900 5900 5900 5900 5900 5900 5900 5900 5900 5901 5901 5901 5902 5902 5902 5903 5903 5904 5904 5905 5905
5885 5887 5889 5890 5891 5892 5894 5895 5896 5897 5897 5898 5898 5899 5899 5900 5900 5900 5900 5900 5900 5900 5900 5900 5900 5900 5900 5900 5900 5900 5900 5900 5900 5900 5901 5901 5901 5901 5902 5902 5903 5903 5904
5884 5885 5887 5888 5889 5890 5892 5893 5894 5895 5896 5897 5897 5898 5898 5899 5899 5900 5900 5900 5900 5900 5900 5900 5900 5900 5900 5899 5900 5900 5900 5899 5899 5900 5900 5900 5900 5900 5900 5900 5901 5901 5901
5881 5883 5884 5886 5887 5888 5890 5891 5893 5894 5895 5895 5896 5897 5897 5898 5898 5899 5899 5899 5899 5899 5900 5900 5900 5900 5899 5899 5899 5899 5899 5899 5899 5899 5899 5899 5899 5899 5899 5899 5899 5899 5899
5879 5881 5882 5884 5885 5886 5888 5889 5891 5892 5893 5893 5894 5895 5896 5896 5897 5897 5898 5898 5898 5898 5899 5899 5899 5899 5899 5898 5898 5898 5898 5898 5897 5897 5897 5897 5897 5897 5897 5897 5897 5897 5897
5876 5878 5879 5881 5883 5884 5885 5887 5888 5889 5890 5891 5892 5893 5894 5894 5895 5896 5896 5897 5897 5897 5897 5897 5898 5897 5897 5897 5896 5896 5896 5896 5896 5896 5895 5895 5895 5895 5895 5895 5895 5895 5894
5873 5875 5877 5878 5880 5881 5883 5884 5885 5887 5888 5889 5890 5891 5891 5892 5893 5893 5894 5894 5895 5895 5895 5895 5895 5895 5895 5895 5894 5894 5894 5894 5893 5893 5893 5893 5893 5893 5892 5892 5892 5892 5891
5870 5872 5873 5875 5877 5878 5880 5881 5882 5884 5885 5886 5887 5888 5888 5889 5890 5890 5891 5892 5892 5892 5893 5893 5892 5892 5892 5892 5892 5891 5891 5891 5891 5890 5890 5890 5890 5889 5889 5889 5888 5888 5887
5866 5868 5870 5872 5873 5875 5876 5878 5879 5880 5882 5883 5884 5884 5885 5886 5887 5888 5888 5889 5889 5889 5889 5889 5889 5889 5889 5889 5888 5888 5888 5887 5887 5887 5887 5886 5886 5885 5885 5884 5884 5884 5883
5863 5864 5866 5868 5869 5871 5872 5874 5875 5877 5878 5879 5880 5881 5882 5883 5883 5884 5884 5885 5885 5885 5886 5886 5885 5885 5885 5885 5884 5884 5883 5883 5883 5883 5882 5882 5881 5881 5880 5880 5879 5879 5878
5858 5860 5862 5864 5865 5866 5868 5870 5871 5873 5874 5875 5876 5877 5878 5878 5879 5879 5880 5880 5881 5881 5881 5881 5881 5881 5880 5880 5880 5879 5879 5879 5878 5878 5877 5877 5876 5875 5875 5874 5874 5873 5872
5854 5856 5858 5859 5860 5862 5864 5865 5866 5868 5869 5870 5871 5872 5873 5874 5874 5874 5875 5875 5875 5875 5875 5875 5875 5875 5875 5875 5874 5874 5874 5873 5872 5872 5871 5870 5870 5869 5868 5867 5867 5866 5865
5850 5851 5853 5855 5856 5857 5859 5860 5861 5863 5864 5865 5866 5867 5868 5868 5869 5869 5869 5870 5870 5870 5870 5870 5869 5869 5869 5868 5868 5868 5867 5867 5867 5866 5865 5863 5863 5862 5861 5860 5859 5858 5857
5846 5847 5849 5850 5851 5853 5854 5855 5857 5858 5859 5860 5861 5862 5862 5863 5863 5863 5863 5863 5863 5863 5863 5863 5863 5863 5862 5862 5861 5861 5860 5860 5859 5859 5858 5856 5855 5854 5853 5852 5851 5850 5848
5842 5843 5844 5846 5847 5848 5849 5851 5852 5853 5854 5854 5855 5855 5856 5857 5857 5857 5857 5857 5857 5857 5856 5856 5856 5855 5855 5854 5854 5853 5853 5852 5851 5850 5850 5848 5847 5846 5844 5843 5841 5840 5839
5838 5839 5840 5841 5842 5843 5845 5846 5847 5848 5848 5849 5849 5849 5850 5850 5850 5850 5850 5850 5850 5849 5849 5849 5848 5848 5847 5846 5845 5845 5844 5843 5842 5841 5840 5839 5838 5836 5834 5833 5832 5830 5828
5836 5836 5836 5837 5838 5839 5840 5841 5842 5842 5843 5843 5844 5844 5844 5844 5844 5843 5843 5843 5843 5842 5841 5841 5840 5839 5839 5838 5837 5836 5835 5834 5833 5832 5830 5828 5826 5825 5823 5822 5820 5818 5816
5832 5832 5832 5833 5833 5834 5836 5836 5837 5837 5837 5838 5838 5838 5838 5837 5837 5836 5835 5835 5834 5834 5834 5833 5832 5831 5830 5828 5827 5826 5825 5824 5822 5821 5819 5817 5815 5813 5811 5809 5808 5806 5803
5829 5828 5828 5829 5830 5830 5831 5831 5831 5831 5831 5831 5831 5831 5831 5830 5830 5828 5827 5827 5826 5825 5825 5824 5823 5821 5820 5819 5817 5816 5814 5813 5811 5810 5808 5806 5804 5801 5799 5796 5794 5792 5790
5825 5825 5825 5825 5825 5826 5826 5826 5826 5825 5825 5825 5825 5824 5823 5823 5822 5821 5820 5820 5818 5817 5815 5814 5813 5811 5810 5808 5807 5805 5803 5802 5800 5798 5796 5794 5791 5789 5786 5783 5781 5778 5775
5821 5821 5821 5820 5820 5820 5820 5820 5820 5819 5819 5819 5818 5817 5816 5815 5814 5813 5812 5811 5810 5808 5807 5805 5803 5802 5800 5798 5796 5794 5792 5790 5787 5785 5783 5780 5778 5776 5773 5769 5766 5763 5760